Regional Weather Roundup
Issued by NWS

Home | Current Version | Previous Version | Graphics & Text | Print | Product List | Glossary On
Versions: 1 2 3 4 5 6 7 8 9 10 11 12 13 14 15 16 17 18 19 20 21 22 23 24 25 26 27 28 29 30 31 32 33 34 35 36 37 38 39 40 41 42 43 44 45 46 47 48 49 50
582
ASUS44 KJAN 200403
RWRMS

MISSISSIPPI HOURLY WEATHER ROUNDUP
NATIONAL WEATHER SERVICE JACKSON MS
1100 PM CDT TUE AUG 19 2014

NOTE: "FAIR: INDICATES FEW OR NO CLOUDS BELOW 12,000 FEET WITH NO
SIGNIFICANT WEATHER AND/OR OBSTRUCTIONS TO VISIBILITY.

MSZ001>002-007>008-010>013-018>021-025>028-034>036-200500-
NORTHWEST MISSISSIPPI

CITY           SKY/WX    TMP DP  RH WIND       PRES   REMARKS
CLARKSDALE     FAIR      81  81 100 CALM      29.92S HX  91
CLEVELAND      FAIR      76  73  91 S5        29.91F
GREENWOOD      PTCLDY    76  74  93 S5        29.93S
GREENVILLE       N/A    N/A N/A N/A MISG      29.92S
GRENADA        FAIR      79  73  83 CALM      29.94S
OLIVE BRANCH   CLEAR     81  81 100 SW12      29.90F HX  91
OXFORD         FAIR      81  75  83 SW7       29.95S
TUNICA         CLEAR     81  77  89 SW6       29.91S
$$

MSZ003>006-009-014>017-022>024-029>033-037>039-200500-
NORTHEAST MISSISSIPPI

CITY           SKY/WX    TMP DP  RH WIND       PRES   REMARKS
BELMONT        FAIR      79  74  84 S6        29.94R
COLUMBUS AFB   PTCLDY    78  72  82 S6        29.95S
CORINTH        FAIR      77  72  83 CALM      29.91R
GOLDN TRIANGLE PTCLDY    79  68  69 CALM      29.96S
STARKVILLE     FAIR      77  70  78 CALM      29.96R
TUPELO         PTCLDY    82  74  76 SW9       29.92S
$$

MSZ040-058-200500-
CENTRAL MISSISSIPPI

CITY           SKY/WX    TMP DP  RH WIND       PRES   REMARKS
JACKSON INTL   MOCLDY    79  75  87 S3        29.97R
JACKSON HAWKNS MOCLDY    82  74  76 SW3       29.97R
MERIDIAN KEY   PTCLDY    71  69  93 S5        29.99R
MERIDIAN NAS   PTCLDY    72  69  90 SE7       29.98R
RAYMOND        FAIR      77  73  88 SW6       29.97R
VICKSBURG      MOCLDY    79  72  79 S5        29.96R
$$

MSZ059>079-200500-
SOUTH MISSISSIPPI

CITY           SKY/WX    TMP DP  RH WIND       PRES   REMARKS
BROOKHAVEN     FAIR      79  73  83 CALM      30.00S
COLUMBIA       FOG       77  75  94 MISG      29.98S VSB 3/4
HATTIESBURG    PTCLDY    81  73  76 E5        30.00R
MCCOMB         PTCLDY    79  72  79 CALM      29.99S
NATCHEZ        PTCLDY    73  70  88 SE5       29.98S
PINE BELT      PTCLDY    73  70  88 S3        30.00S
$$

MSZ080>082-200500-
COASTAL MISSISSIPPI

CITY           SKY/WX    TMP DP  RH WIND       PRES   REMARKS
BILOXI         PTCLDY    82  72  70 CALM      30.00S
PASCAGOULA     CLEAR     78  76  93 CALM      30.01R
GULFPORT       CLEAR     80  74  81 CALM      29.99S
$$



USA.gov is the U.S. government's official web portal to all federal, state and local government web resources and services.